Location: �clusier
(49.9361°N, 2.7869°E)
Time: 08:02:30
(UTC+00:00)

Cosmos 1536 Rocket - Pass Details

Date: 16 June 2021
Orbit: 604 x 633 km, 82.5° (Epoch: 31 July)

Event Time Altitude Azimuth Distance (km) Brightness Sun altitude
Exits shadow 22:35:22 13° 211° (SSW) 1,843 5.6 -14.8°
Maximum altitude 22:39:15 49° 285° (WNW) 823 4.4 -15.0°
Drops below altitude 10° 22:43:36 10° 0° (N) 2,018 7.4 -15.2°
Sets 22:45:54 0° 6° (N) 2,926 8.4 -15.3°
